THOR ABLESTAR DEB

Satellite information

Favourite Embed

Satellite Type and Status

DEBRISIN ORBIT

Key statistics

Satellite THOR ABLESTAR DEB at a glance.

Uptime

23324

Days in orbit

Revolutions

≈ 13.6

Per day

Orbit

LEO

Low Earth Orbit

Inclination

66.6

Latest

Satellite identification and parameters

Extended collection of information and parameters for THOR ABLESTAR DEB.

Object identification

Identified? True

Debris? True

Object name: THOR ABLESTAR DEB

International designator: 1961-015JS

Object number (NORAD): 5715

Object ID (CCSDS): 5715

Country: UNITED STATES OF AMERICA (US)

Current information (Y/N): Y

RCS size: SMALL

Orbital parameters

Period: 105.601 minutes

Inclination: 66.5656 deg

SMA: 7400.7 km

Apoapsis: 1143.875 km

Periapsis: 901.256 km

RAAN: 333.1344 deg

Eccentricy: 0.0163916

Argument of periapsis: 310.6783 deg

Mean anomaly: 110.698 deg

Mean motion: 13.63620516 rev/day

Mean motion (dot): 0.00000906 rev/day2

B* drag term: 0.0011293 1/REarth

Two-line elements (TLE)

Creation date: May 8, 2025, 3:01 a.m.

Reference frame: TEME

Reference center: EARTH

Epoch: May 7, 2025, 3:31 p.m. UTC

TLE line 0: 0 THOR ABLESTAR DEB

TLE line 1: 1 05715U 61015JS 25127.64652957 .00000906 00000-0 11293-2 0 9995

TLE line 2: 2 05715 66.5656 333.1344 0163916 310.6783 110.6980 13.63620516146424

Live tracking on map

Real-time ground track for satellite THOR ABLESTAR DEB.

In-orbit conjunctions

A list of the most updated potential collisions computed for object THOR ABLESTAR DEB.

Target Orbit TCA Probability of collision Miss distance Type
SL-3 R/B LEO 2025-05-05 17:08:08 0.0002095276 839.0 (m) ROCKET BODY
EXPLORER 40 (INJUN-5) MEO 2025-03-06 03:54:38 0.0003043624 75.0 (m) PAYLOAD

Associated space launch

THOR ABLESTAR DEB was lifted into orbit during the mission ‘Thor DM-21 Ablestar | Transit 4A & Injun-1 & Solrad 3’, on board a Thor DM-21 Ablestar space rocket.

The launch took place on June 29, 1961, 4:23 a.m. from Space Launch Complex 17B.

For more information about the launch, click the button.

Launch to space Thor DM-21 Ablestar | Transit 4A & Injun-1 & Solrad 3
Thor DM-21 Ablestar | Transit 4A & Injun-1 & Solrad 3

Agency: N/A

Status: Launch Successful

Launch date: June 29, 1961, 4:23 a.m. UTC

Rocket: Thor DM-21 Ablestar

Launch pad: Space Launch Complex 17B

Location: Cape Canaveral SFS, FL, USA

...

Latest news about this satellite

There are no fresh news available about this satellite. Check back as we update our databases every day.


Newsletter sign-up

Weekly statistics, charts and insights to help you stay on top of the space industry.